This is the latest recevied weather packets stored in our database for station/object KA1AL. If no packets are shown the sender has not sent any weather packets the latest 10 day(s).
| Time | Temp. | Humidity | Pressure | Rain* | Wind** | Luminosity | Snow |
|---|---|---|---|---|---|---|---|
| 1778166242 | 12.78° C | 72% | 1003.9 hPa | 0 mm | - | 844 W/m² | - |
| 1778165938 | 11.67° C | 71% | 1003.9 hPa | 0 mm | - | 877 W/m² | - |
| 1778165634 | 12.22° C | 76% | 1003.9 hPa | 0 mm | - | 882 W/m² | - |
| 1778165332 | 12.78° C | 75% | 1003.8 hPa | 0 mm | - | 863 W/m² | - |
| 1778165029 | 11.67° C | 75% | 1004 hPa | 0 mm | - | 797 W/m² | - |
| 1778164725 | 12.22° C | 77% | 1003.9 hPa | 0 mm | - | 801 W/m² | - |
| 1778164423 | 11.11° C | 77% | 1004 hPa | 0 mm | - | 776 W/m² | - |
| 1778164119 | 11.11° C | 76% | 1004.2 hPa | 0 mm | - | 767 W/m² | - |
| 1778163815 | 11.11° C | 77% | 1004.4 hPa | 0 mm | - | 759 W/m² | - |
| 1778163512 | 11.11° C | 76% | 1004.4 hPa | 0 mm | - | 739 W/m² | - |
| 1778163209 | 11.11° C | 79% | 1004 hPa | 0 mm | - | 727 W/m² | - |
| 1778162905 | 11.11° C | 77% | 1004.5 hPa | 0 mm | - | 710 W/m² | - |
| 1778162602 | 11.67° C | 78% | 1004.2 hPa | 0 mm | - | 701 W/m² | - |
| 1778162300 | 11.11° C | 80% | 1004.5 hPa | 0 mm | - | 693 W/m² | - |
| 1778161997 | 11.11° C | 83% | 1004.2 hPa | 0 mm | - | 687 W/m² | - |
| 1778161694 | 10.56° C | 84% | 1004.2 hPa | 0 mm | - | 682 W/m² | - |
| 1778161390 | 10.56° C | 85% | 1004.5 hPa | 0 mm | - | 672 W/m² | - |
| 1778161085 | 10° C | 84% | 1004.2 hPa | 0 mm | - | 658 W/m² | - |
| 1778160782 | 10° C | 83% | 1004.2 hPa | 0 mm | - | 650 W/m² | - |
| 1778160480 | 10° C | 87% | 1004.4 hPa | 0 mm | - | 643 W/m² | - |
| 1778160176 | 10° C | 86% | 1004.2 hPa | 0 mm | - | 639 W/m² | - |
| 1778159873 | 10° C | 88% | 1004.6 hPa | 0 mm | - | 621 W/m² | - |
| 1778159570 | 10° C | 88% | 1004.6 hPa | 0 mm | - | 616 W/m² | - |
| 1778159267 | 9.44° C | 88% | 1004.5 hPa | 0 mm | - | 600 W/m² | - |
| 1778158965 | 9.44° C | 88% | 1004.7 hPa | 0 mm | - | 575 W/m² | - |
* Rain latest hour (hover to see other rain measurements)
** Current wind speed in m/s (hover to see current wind gust speed)